Regional Weather Roundup
Issued by NWS

Home | Current Version | Previous Version | Graphics & Text | Print | Product List | Glossary On
Versions: 1 2 3 4 5 6 7 8 9 10 11 12 13 14 15 16 17 18 19 20 21 22 23 24 25 26 27 28 29 30 31 32 33 34 35 36 37 38 39 40 41 42 43 44 45 46 47 48 49 50
000
ASUS45 KPSR 020810
RWRAZ

ARIZONA REGIONAL HOURLY WEATHER ROUNDUP
NATIONAL WEATHER SERVICE PHOENIX AZ
100 AM MST MON MAR 02 2015

NOTE: FAIR INDICATES FEW OR NO CLOUDS BELOW 12,000 FEET WITH NO
SIGNIFICANT WEATHER AND/OR OBSTRUCTIONS TO VISIBILITY.

AZZ001>003-036-020900-
NORTHWEST ARIZONA

CITY           SKY/WX    TMP DP  RH WIND       PRES   REMARKS
BULLHEAD CITY  LGT RAIN  50  46  87 N14       29.92F
KINGMAN        LGT RAIN  41  39  93 N3        29.91F
$$

AZZ004>008-015-016-018-020900-
NORTH CENTRAL ARIZONA

CITY           SKY/WX    TMP DP  RH WIND       PRES   REMARKS
GRAND CANYON   FLURRIES  38  36  92 S9G18     29.94F WCI  31
PRESCOTT       CLOUDY    48  38  68 S22G38    29.95F
FLAGSTAFF      RAIN      39  36  89 S23G37    29.97F FOG     WCI  28
PAYSON         LGT RAIN  46  45  93 S9G16     30.03F
PAGE           CLOUDY    37  34  89 CALM      29.96F
$$

AZZ009>014-017-020900-
NORTHEAST ARIZONA

CITY           SKY/WX    TMP DP  RH WIND       PRES   REMARKS
WINSLOW        CLEAR     38  37  97 E7        29.97F WCI  33
SAINT JOHNS      N/A     37  28  70 CALM      30.03
WINDOW ROCK    CLEAR     39  34  82 CALM      30.06F
SHOW LOW       PTCLDY    41  36  81 S17       30.06F
$$

AZZ023-020900-
GREATER PHOENIX AREA

CITY           SKY/WX    TMP DP  RH WIND       PRES   REMARKS
PHOENIX        MOCLDY    65  49  56 S7        29.92F
BUCKEYE        PTCLDY    61  48  63 SE5       29.92F
DEER VALLEY    MOCLDY    62  50  64 CALM      29.93F
SCOTTSDALE     CLOUDY    63  49  60 SE3       29.95F
MESA-GATEWAY   MOCLDY    63  50  63 SW6       29.97S
$$

AZZ027-028-020900-
SOUTHWEST MARICOPA COUNTY AND PINAL COUNTY

CITY           SKY/WX    TMP DP  RH WIND       PRES   REMARKS
CASA GRANDE    MOCLDY    61  48  63 CALM      29.95F
GILA BEND      FAIR      64  47  54 SW9       29.91F
$$

AZZ503-504-507>509-020900-
SOUTHEAST ARIZONA

CITY           SKY/WX    TMP DP  RH WIND       PRES   REMARKS
TUCSON         CLOUDY    63  43  48 SE5       29.99F
DAVIS-MONTHAN  MOCLDY    60  43  53 SE3       29.97F
NOGALES        CLOUDY    58  41  53 S16       30.02F
SIERRA VISTA   CLOUDY    57  28  33 W12       30.03F
DOUGLAS        CLOUDY    60  36  40 S21       30.04F
SAFFORD        CLOUDY    58  34  40 SE9       29.99F
$$

AZZ020-021-025-026-031-020900-
SOUTHWEST ARIZONA

CITY           SKY/WX    TMP DP  RH WIND       PRES   REMARKS
YUMA           CLOUDY    53  51  93 NW7       29.95F
$$

CAZ031-033-041-043-047-048-061-020900-
SOUTHERN CALIFORNIA

CITY           SKY/WX    TMP DP  RH WIND       PRES   REMARKS
DOWNTOWN L.A.  HVY RAIN  50  48  93 N3        29.94F FOG
L.A. AIRPORT   HVY RAIN  50  47  89 N9        29.94F
SAN DIEGO      LGT RAIN  55  49  80 SE9       29.97S
BURBANK        HVY RAIN  50  47  89 W6        29.94S FOG
ONTARIO        MOCLDY    50  42  74 E3        29.93F
RIVERSIDE      CLOUDY    51  43  74 SE3       29.93F
PALM SPRINGS   CLOUDY    51  48  89 SW3       29.95F
EL CENTRO NAS  LGT RAIN  53  49  86 S6        29.95F
IMPERIAL       LGT RAIN  53  50  89 CALM      29.95F
BLYTHE         LGT RAIN  51  51 100 W8        29.95F
NEEDLES        LGT RAIN  51  46  83 NW6       29.92F
$$

NVZ020-UTZ003-020900-
SOUTHERN NEVADA-UTAH

CITY           SKY/WX    TMP DP  RH WIND       PRES   REMARKS
LAS VEGAS      CLOUDY    47  40  76 E6        29.87F
SALT LAKE CITY CLOUDY    40  30  67 CALM      29.92F
$$

NMZ009-TXZ055-020900-
NEW MEXICO-WEST TEXAS

CITY           SKY/WX    TMP DP  RH WIND       PRES   REMARKS
ALBUQUERQUE    CLOUDY    42  34  73 N12       30.10S
EL PASO        CLOUDY    58  30  34 CALM      30.08S
$$


........................KEY........................
SKY/WX - SKY CONDITION/WEATHER
TMP    - TEMPERATURE IN FAHRENHEIT
DP     - DEW POINT IN FAHRENHEIT
RH     - RELATIVE HUMIDITY IN PERCENT
WIND   - DIRECTION AND SPEED IN MILES PER HOUR (MPH)
VRB    - VARIABLE WIND DIRECTION
PRES   - MEAN SEA LEVEL PRESSURE IN INCHES OF MERCURY
         F - FALLING PRESSURE   R - RISING PRESSURE
         S - STEADY PRESSURE
VSB    - VISIBILITY IN MILES
HX     - HEAT INDEX IN FAHRENHEIT
WCI    - WIND CHILL INDEX IN FAHRENHEIT
TC     - TEMPERATURE IN CELSIUS WHICH IS ALSO KNOWN AS
         TEMPERATURE IN CENTIGRADE
AFB    - AIR FORCE BASE
         LUKE AFB IS LUKE AIR FORCE BASE
         DAVIS-MONTHAN IS DAVIS-MONTHAN AIR FORCE BASE
NAS    - NAVAL AIR STATION
         EL CENTRO NAS IS EL CENTRO NAVAL AIR STATION
N/A    - NOT AVAILABLE



USA.gov is the U.S. government's official web portal to all federal, state and local government web resources and services.